CW0060 Weather Reports


Display with metric or nautical units.
time (UTC)temp
F
wind
direction
speed
MPH
gust
MPH
rain 1hr
in
rain 24hr
in
rain mn
in
humidity
%
barometer
mb
20260510104205 70 102 4.0 8.0 0.00 0.00 0.00 59 1010.3
20260510103706 70 109 3.0 11.0 0.00 0.00 0.00 59 1010.4
20260510103205 69 77 5.0 11.0 0.00 0.00 0.00 60 1010.4
20260510102705 70 123 5.0 11.0 0.00 0.00 0.00 59 1010.4
20260510102205 69 77 3.0 9.0 0.00 0.00 0.00 63 1010.4
20260510101705 69 65 4.0 10.0 0.00 0.00 0.00 64 1010.4
20260510101205 69 98 4.0 10.0 0.00 0.00 0.00 61 1010.5
20260510100205 68 79 5.0 8.0 0.00 0.00 0.00 65 1010.7
20260510095705 67 98 4.0 9.0 0.00 0.00 0.00 66 1010.8
20260510095205 68 20 4.0 9.0 0.00 0.00 0.00 66 1010.8
20260510094206 67 129 3.0 8.0 0.00 0.00 0.00 65 1011.0
20260510093705 66 89 3.0 8.0 0.00 0.00 0.00 65 1010.9
20260510093205 66 20 4.0 6.0 0.00 0.00 0.00 65 1011.1
20260510091705 65 65 3.0 9.0 0.00 0.00 0.00 65 1011.2
20260510091205 65 46 3.0 9.0 0.00 0.00 0.00 68 1011.3
20260510090706 65 32 3.0 9.0 0.00 0.00 0.00 67 1011.2
20260510090205 65 98 4.0 8.0 0.00 0.00 0.00 68 1011.2
20260510085706 64 135 3.0 6.0 0.00 0.00 0.00 72 1011.3
20260510085206 63 130 2.0 7.0 0.00 0.00 0.00 67 1011.4
20260510084705 63 32 3.0 8.0 0.00 0.00 0.00 70 1011.4
20260510084205 63 76 4.0 8.0 0.00 0.00 0.00 70 1011.3
20260510083705 63 50 3.0 6.0 0.00 0.00 0.00 71 1011.5
20260510083206 62 9 3.0 6.0 0.00 0.00 0.00 70 1011.5
20260510082704 62 349 3.0 7.0 0.00 0.00 0.00 71 1011.4
20260510081705 61 141 3.0 7.0 0.00 0.00 0.00 73 1011.6
20260510081206 61 35 3.0 7.0 0.00 0.00 0.00 74 1011.6
20260510080705 61 75 3.0 7.0 0.00 0.00 0.00 74 1011.7
20260510080205 61 63 3.0 7.0 0.00 0.00 0.00 74 1011.7
20260510075705 60 89 4.0 7.0 0.00 0.00 0.00 75 1011.7
20260510075206 60 127 3.0 7.0 0.00 0.00 0.00 77 1011.7
20260510074705 59 96 3.0 7.0 0.00 0.00 0.00 80 1011.8
20260510074205 58 151 3.0 8.0 0.00 0.00 0.00 83 1011.8
20260510073205 56 101 3.0 7.0 0.00 0.00 0.00 90 1011.9
20260510072705 55 65 3.0 7.0 0.00 0.00 0.00 91 1012.0
20260510072206 55 347 3.0 7.0 0.00 0.00 0.00 91 1012.0
20260510071705 54 63 3.0 7.0 0.00 0.00 0.00 91 1012.0
20260510071205 53 89 3.0 7.0 0.00 0.00 0.00 92 1012.0
20260510070705 53 138 3.0 7.0 0.00 0.00 0.00 92 1011.9
20260510070205 52 79 3.0 6.0 0.00 0.00 0.00 92 1011.9
20260510065206 52 50 2.0 5.0 0.00 0.00 0.00 91 1012.0
20260510064705 51 46 2.0 5.0 0.00 0.00 0.00 91 1012.0
20260510064205 51 63 2.0 5.0 0.00 0.00 0.00 91 1012.0
20260510062705 50 269 2.0 4.0 0.00 0.00 0.00 91 1011.9
20260510062206 50 108 1.0 2.0 0.00 0.00 0.00 91 1012.0
20260510060705 49 193 1.0 2.0 0.00 0.00 0.00 91 1012.0
20260510060214 49 89 1.0 2.0 0.00 0.00 0.00 90 1012.0
20260510055706 49 233 1.0 2.0 0.00 0.00 0.00 90 1012.2
20260510055205 48 212 0.0 2.0 0.00 0.00 0.00 90 1012.1
20260510054705 48 222 0.0 1.0 0.00 0.00 0.00 90 1012.3
20260510053706 48 314 0.0 1.0 0.00 0.00 0.00 90 1012.3
20260510053206 48 240 0.0 1.0 0.00 0.00 0.00 90 1012.2
20260510052704 48 222 0.0 2.0 0.00 0.00 0.00 90 1012.2
20260510052206 47 46 0.0 2.0 0.00 0.00 0.00 90 1012.2
20260510051705 47 314 0.0 1.0 0.00 0.00 0.00 89 1012.3
20260510050705 47 63 0.0 1.0 0.00 0.00 0.00 89 1012.2
20260510050206 47 178 0.0 1.0 0.00 0.00 0.00 89 1012.3
20260510045706 47 35 0.0 2.0 0.00 0.00 0.00 89 1012.4
20260510044705 47 135 1.0 2.0 0.00 0.00 0.00 89 1012.5
20260510043705 47 46 1.0 2.0 0.00 0.00 0.00 89 1012.5
20260510042705 47 63 0.0 1.0 0.00 0.00 0.00 89 1012.6
20260510042206 47 89 0.0 1.0 0.00 0.00 0.00 89 1012.6
20260510041705 47 89 0.0 1.0 0.00 0.00 0.00 89 1012.6
20260510041205 47 89 0.0 1.0 0.00 0.00 0.00 89 1012.7
20260510040705 47 89 0.0 1.0 0.00 0.00 0.00 89 1012.6
20260510040206 47 89 0.0 1.0 0.00 0.00 0.00 89 1012.6
20260510035705 47 89 0.0 1.0 0.00 0.00 0.00 89 1012.6
20260510035206 47 46 0.0 1.0 0.00 0.00 0.00 88 1012.7
20260510034705 47 46 0.0 1.0 0.00 0.00 0.00 88 1012.7
20260510034205 47 46 0.0 2.0 0.00 0.00 0.00 88 1012.7
20260510033705 47 46 1.0 2.0 0.00 0.00 0.00 88 1012.7
20260510033205 48 63 1.0 2.0 0.00 0.00 0.00 88 1012.8
20260510032205 48 46 0.0 1.0 0.00 0.00 0.00 88 1012.8
20260510031705 48 331 0.0 1.0 0.00 0.00 0.00 88 1012.8
20260510031205 48 1 0.0 0.0 0.00 0.00 0.00 88 1013.0
20260510030705 48 46 0.0 1.0 0.00 0.00 0.00 88 1013.0
20260510030206 48 314 0.0 1.0 0.00 0.00 0.00 88 1013.0
20260510025706 48 89 0.0 1.0 0.00 0.00 0.00 88 1012.8
20260510025206 48 135 0.0 1.0 0.00 0.00 0.00 88 1013.0
20260510024705 48 135 0.0 1.0 0.00 0.00 0.00 88 1013.0
20260510024206 48 46 0.0 1.0 0.00 0.00 0.00 88 1013.0
20260510023205 48 89 0.0 1.0 0.00 0.00 0.00 87 1013.1
20260510022205 48 89 0.0 1.0 0.00 0.00 0.00 87 1013.1
20260510021206 49 89 0.0 3.0 0.00 0.00 0.00 87 1013.2
20260510020705 49 46 1.0 4.0 0.00 0.00 0.00 87 1013.2
20260510020205 49 53 2.0 4.0 0.00 0.00 0.00 87 1013.2
20260510015705 49 39 2.0 3.0 0.00 0.00 0.00 87 1013.3
20260510015205 49 46 2.0 3.0 0.00 0.00 0.00 87 1013.3
20260510014705 49 35 2.0 3.0 0.00 0.00 0.00 87 1013.3
20260510014206 49 25 1.0 3.0 0.00 0.00 0.00 87 1013.3
20260510013705 49 68 2.0 3.0 0.00 0.00 0.00 87 1013.3
20260510013220 49 25 1.0 3.0 0.00 0.00 0.00 87 1013.3
20260510011705 49 23 0.0 2.0 0.00 0.00 0.00 86 1013.4
20260510011205 49 35 0.0 2.0 0.00 0.00 0.00 86 1013.4
20260510010235 49 1 1.0 2.0 0.00 0.00 0.00 86 1013.4
20260510005705 49 314 1.0 2.0 0.00 0.00 0.00 86 1013.5
20260510005205 50 40 1.0 2.0 0.00 0.00 0.00 86 1013.5
20260510004705 50 72 1.0 2.0 0.00 0.00 0.00 86 1013.4
20260510004206 50 46 1.0 2.0 0.00 0.00 0.00 86 1013.5
20260510003705 50 101 1.0 2.0 0.00 0.00 0.00 85 1013.5
20260510003205 50 63 1.0 2.0 0.00 0.00 0.00 85 1013.6
20260510002705 50 72 1.0 2.0 0.00 0.00 0.00 85 1013.6
20260510002206 50 28 1.0 3.0 0.00 0.00 0.00 85 1013.8
20260510001205 50 32 1.0 3.0 0.00 0.00 0.00 85 1014.0
20260510000205 51 1 1.0 3.0 0.00 0.00 0.00 85 1014.1
20260509235705 51 28 2.0 3.0 0.00 0.00 0.00 85 1014.1
20260509235206 51 21 2.0 3.0 0.00 0.00 0.00 85 1014.1
20260509234708 51 18 2.0 3.0 0.00 0.00 0.00 85 1014.1
20260509234206 51 46 1.0 2.0 0.00 0.00 0.00 84 1014.2
20260509233705 51 63 0.0 2.0 0.00 0.00 0.00 84 1014.2
20260509233204 51 222 1.0 3.0 0.00 0.00 0.00 84 1014.2
20260509232705 51 20 1.0 5.0 0.00 0.00 0.00 84 1014.2
20260509232205 51 336 1.0 5.0 0.00 0.00 0.00 83 1014.2
20260509231705 51 39 2.0 5.0 0.00 0.00 0.00 83 1014.3
20260509230705 51 331 2.0 3.0 0.00 0.00 0.00 83 1014.3
20260509225705 52 314 0.0 2.0 0.00 0.00 0.00 83 1014.3
20260509224705 52 222 0.0 1.0 0.00 0.00 0.00 82 1014.4
20260509224205 52 1 1.0 1.0 0.00 0.00 0.00 82 1014.4
20260509223705 52 269 0.0 1.0 0.00 0.00 0.00 82 1014.4
20260509223204 52 135 0.0 1.0 0.00 0.00 0.00 82 1014.4
20260509222705 52 46 0.0 1.0 0.00 0.00 0.00 82 1014.5
20260509222206 53 222 0.0 1.0 0.00 0.00 0.00 81 1014.5
20260509221706 53 269 0.0 1.0 0.00 0.00 0.00 81 1014.5
20260509221226 53 63 0.0 2.0 0.00 0.00 0.00 81 1014.5
20260509220705 53 178 1.0 2.0 0.00 0.00 0.00 81 1014.5
20260509220205 53 135 1.0 2.0 0.00 0.00 0.00 81 1014.5
20260509215705 53 46 0.0 2.0 0.00 0.00 0.00 80 1014.5
20260509215205 53 1 0.0 2.0 0.00 0.00 0.00 80 1014.6
20260509214706 53 269 1.0 2.0 0.00 0.00 0.00 79 1014.6
20260509214205 54 89 1.0 2.0 0.00 0.00 0.00 79 1014.6
20260509213704 54 112 0.0 1.0 0.00 0.00 0.00 79 1014.5
20260509212705 54 269 0.0 2.0 0.00 0.00 0.00 79 1014.7
20260509212206 54 46 0.0 2.0 0.00 0.00 0.00 78 1014.5
20260509211706 54 269 1.0 2.0 0.00 0.00 0.00 78 1014.6
20260509211205 55 240 1.0 2.0 0.00 0.00 0.00 78 1014.7
20260509210206 55 222 0.0 2.0 0.00 0.00 0.00 77 1014.4
20260509205705 55 46 1.0 2.0 0.00 0.00 0.00 77 1014.5
20260509205221 55 89 1.0 2.0 0.00 0.00 0.00 77 1014.3
20260509204705 56 124 1.0 2.0 0.00 0.00 0.00 76 1014.4
20260509203706 56 46 0.0 1.0 0.00 0.00 0.00 76 1014.4
20260509203205 56 46 0.0 1.0 0.00 0.00 0.00 75 1014.5
20260509202705 57 253 0.0 1.0 0.00 0.00 0.00 75 1014.4
20260509202205 57 46 0.0 2.0 0.00 0.00 0.00 75 1014.4
20260509201705 57 89 0.0 2.0 0.00 0.00 0.00 74 1014.5
20260509201205 57 46 1.0 2.0 0.00 0.00 0.00 74 1014.5
20260509200706 58 63 1.0 2.0 0.00 0.00 0.00 74 1014.6
20260509195710 58 117 0.0 1.0 0.00 0.00 0.00 72 1014.6
20260509195206 59 46 0.0 2.0 0.00 0.00 0.00 72 1014.6
20260509194706 59 46 0.0 3.0 0.00 0.00 0.00 71 1014.5
20260509194205 59 63 1.0 3.0 0.00 0.00 0.00 70 1014.5
20260509193205 60 40 2.0 4.0 0.00 0.00 0.00 70 1014.4
20260509192206 61 41 1.0 3.0 0.00 0.00 0.00 68 1014.5
20260509191705 61 67 1.0 3.0 0.00 0.00 0.00 67 1014.5
20260509191205 61 53 1.0 3.0 0.00 0.00 0.00 67 1014.4
20260509190705 62 1 1.0 4.0 0.00 0.00 0.00 66 1014.3
20260509185705 62 46 2.0 4.0 0.00 0.00 0.00 66 1014.2
20260509185205 62 68 2.0 5.0 0.00 0.00 0.00 66 1014.2
20260509184705 62 46 2.0 6.0 0.00 0.00 0.00 66 1014.1
20260509184205 62 63 3.0 6.0 0.00 0.00 0.00 67 1014.1
20260509183705 62 39 3.0 6.0 0.00 0.00 0.00 67 1014.1
20260509183206 63 74 3.0 6.0 0.00 0.00 0.00 67 1014.1
20260509182705 63 46 3.0 5.0 0.00 0.00 0.00 69 1014.1
20260509181705 63 56 3.0 5.0 0.00 0.00 0.00 70 1014.1
20260509180705 63 44 3.0 6.0 0.00 0.00 0.00 69 1014.1
20260509180205 64 51 3.0 6.0 0.00 0.00 0.00 69 1014.1
20260509175705 64 53 3.0 6.0 0.00 0.00 0.00 67 1014.1
20260509175206 65 49 3.0 6.0 0.00 0.00 0.00 66 1014.1
20260509174705 65 46 3.0 5.0 0.00 0.00 0.00 64 1014.1
20260509174205 66 56 3.0 5.0 0.00 0.00 0.00 65 1014.1
20260509173705 66 63 3.0 5.0 0.00 0.00 0.00 61 1014.1
20260509173205 67 63 3.0 5.0 0.00 0.00 0.00 60 1014.1
20260509172205 67 46 3.0 5.0 0.00 0.00 0.00 61 1014.1
20260509171705 68 74 2.0 5.0 0.00 0.00 0.00 57 1014.1
20260509171205 68 63 2.0 5.0 0.00 0.00 0.00 57 1014.2
20260509170205 68 51 3.0 7.0 0.00 0.00 0.00 55 1014.1
20260509165705 68 51 3.0 7.0 0.00 0.00 0.00 56 1014.1
20260509165205 69 51 3.0 6.0 0.00 0.00 0.00 55 1014.1
20260509164705 69 60 3.0 6.0 0.00 0.00 0.00 57 1014.2
20260509164205 69 37 3.0 6.0 0.00 0.00 0.00 56 1014.2
20260509162705 70 62 3.0 7.0 0.00 0.00 0.00 55 1014.3
20260509162209 69 336 3.0 7.0 0.00 0.00 0.00 55 1014.3
20260509161705 69 75 3.0 5.0 0.00 0.00 0.00 54 1014.4
20260509161223 70 68 3.0 5.0 0.00 0.00 0.00 53 1014.5
20260509160706 69 51 2.0 5.0 0.00 0.00 0.00 54 1014.5
20260509160205 70 89 2.0 6.0 0.00 0.00 0.00 54 1014.5
20260509155705 70 11 3.0 7.0 0.00 0.00 0.00 50 1014.6
20260509155205 71 63 3.0 7.0 0.00 0.00 0.00 53 1014.6
20260509154705 71 84 3.0 7.0 0.00 0.00 0.00 52 1014.8
20260509154205 71 108 3.0 7.0 0.00 0.00 0.00 51 1014.8
20260509153706 71 89 3.0 7.0 0.00 0.00 0.00 55 1014.8
20260509152705 71 58 4.0 9.0 0.00 0.00 0.00 55 1014.9
20260509151206 69 348 3.0 9.0 0.00 0.00 0.00 59 1015.0
20260509150705 70 135 3.0 7.0 0.00 0.00 0.00 51 1015.0
20260509150205 71 351 3.0 9.0 0.00 0.00 0.00 51 1015.0
20260509145205 71 331 4.0 9.0 0.00 0.00 0.00 55 1015.0
20260509144706 71 75 4.0 9.0 0.00 0.00 0.00 54 1015.1
20260509144206 71 302 3.0 9.0 0.00 0.00 0.00 53 1015.2
20260509142705 71 35 3.0 9.0 0.00 0.00 0.00 53 1015.2
20260509142205 71 98 4.0 8.0 0.00 0.00 0.00 52 1015.2
20260509140706 71 63 3.0 8.0 0.00 0.00 0.00 55 1015.4
20260509140205 70 28 4.0 10.0 0.00 0.00 0.00 55 1015.4
20260509135705 70 98 4.0 10.0 0.00 0.00 0.00 54 1015.5
20260509135205 70 18 4.0 10.0 0.00 0.00 0.00 57 1015.6
20260509134705 70 89 4.0 9.0 0.00 0.00 0.00 56 1015.6
20260509133706 71 199 4.0 10.0 0.00 0.00 0.00 54 1015.7
20260509133205 71 171 4.0 10.0 0.00 0.00 0.00 56 1015.7
20260509132705 70 39 4.0 10.0 0.00 0.00 0.00 58 1015.8
20260509132206 69 86 4.0 10.0 0.00 0.00 0.00 58 1015.9
20260509131205 70 98 3.0 7.0 0.00 0.00 0.00 57 1016.1
20260509130705 69 20 3.0 8.0 0.00 0.00 0.00 55 1016.2
20260509130205 69 60 3.0 11.0 0.00 0.00 0.00 57 1016.2
20260509125708 68 314 4.0 11.0 0.00 0.00 0.00 51 1016.3
20260509125206 69 105 4.0 11.0 0.00 0.00 0.00 54 1016.4
20260509124705 67 108 2.0 6.0 0.00 0.00 0.00 56 1016.4
20260509124206 68 229 2.0 7.0 0.00 0.00 0.00 54 1016.4
20260509123705 69 60 3.0 8.0 0.00 0.00 0.00 52 1016.5
20260509123205 69 49 3.0 13.0 0.00 0.00 0.00 57 1016.5
20260509122705 69 62 4.0 13.0 0.00 0.00 0.00 54 1016.6
20260509122206 69 169 5.0 9.0 0.00 0.00 0.00 58 1016.6
20260509121705 68 269 5.0 9.0 0.00 0.00 0.00 59 1016.6
20260509121231 69 41 4.0 10.0 0.00 0.00 0.00 57 1016.8
20260509120205 68 56 4.0 10.0 0.00 0.00 0.00 53 1017.0
20260509115210 67 119 4.0 9.0 0.00 0.00 0.00 62 1017.0
20260509114705 67 33 4.0 9.0 0.00 0.00 0.00 60 1017.0
20260509114206 66 331 4.0 9.0 0.00 0.00 0.00 62 1017.1
20260509112705 66 58 4.0 6.0 0.00 0.00 0.00 64 1017.2
20260509112209 66 76 3.0 10.0 0.00 0.00 0.00 59 1017.3
20260509111706 66 65 3.0 10.0 0.00 0.00 0.00 60 1017.4
20260509111205 67 102 5.0 10.0 0.00 0.00 0.00 57 1017.4
20260509110705 67 15 4.0 12.0 0.00 0.00 0.00 61 1017.4
20260509110206 66 88 4.0 12.0 0.00 0.00 0.00 58 1017.6
20260509105705 66 129 4.0 7.0 0.00 0.00 0.00 61 1017.6
20260509105205 65 201 3.0 7.0 0.00 0.00 0.00 65 1017.6
20260509104705 65 93 3.0 7.0 0.00 0.00 0.00 65 1017.7